EW1476 Weather Reports


Display with metric or nautical units.
time (UTC)temp
F
wind
direction
speed
MPH
gust
MPH
rain 1hr
in
rain 24hr
in
rain mn
in
humidity
%
barometer
mb
20260903211542 84 205 0.0 0.0 0.00 0.11 0.11 80 1014.7
20260903210029 84 205 0.0 0.0 0.00 0.11 0.11 77 1014.9
20260903204524 83 205 0.0 0.0 0.00 0.11 0.11 80 1014.9
20260903203023 83 205 0.0 0.0 0.00 0.11 0.11 78 1015.2
20260903201518 82 205 0.0 0.0 0.00 0.11 0.11 80 1015.4
20260903200030 82 207 0.0 0.0 0.00 0.11 0.11 76 1015.5
20260903194535 81 206 0.0 0.0 0.00 0.11 0.11 79 1015.7
20260903193031 81 206 0.0 0.0 0.00 0.11 0.11 80 1015.9
20260903191533 80 206 0.0 0.0 0.00 0.11 0.11 80 1016.4
20260903190027 79 206 0.0 0.0 0.00 0.11 0.11 82 1016.6
20260903184518 77 206 0.0 0.0 0.00 0.11 0.11 84 1016.9
20260903183016 77 207 0.0 0.0 0.00 0.11 0.11 85 1016.9
20260903181512 76 207 0.0 2.0 0.00 0.11 0.11 86 1016.8
20260903180040 75 206 0.0 2.0 0.00 0.11 0.11 87 1017.2
20260903174530 75 206 0.0 1.0 0.00 0.11 0.11 91 1017.4
20260903173027 74 207 0.0 2.0 0.00 0.14 0.11 92 1017.6
20260903171525 73 195 0.0 0.0 0.00 0.33 0.11 94 1017.7
20260903170029 73 195 0.0 0.0 0.01 0.58 0.11 95 1018.1
20260903164515 73 195 0.0 0.0 0.01 0.58 0.11 95 1018.4
20260903163038 72 195 0.0 0.0 0.02 0.58 0.11 95 1018.3
20260903161531 72 195 0.0 0.0 0.02 0.58 0.11 95 1018.3
20260903160029 71 195 0.0 0.0 0.06 0.58 0.10 94 1018.6
20260903154528 71 195 1.0 1.0 0.09 0.58 0.10 94 1019.1
20260903153025 72 214 0.0 1.0 0.09 0.57 0.09 94 1019.9
20260903151537 72 220 4.0 7.0 0.09 0.57 0.09 94 1020.4
20260903150045 73 204 0.0 0.0 0.04 0.52 0.04 93 1018.9
20260903144532 73 205 0.0 2.0 0.01 0.49 0.01 92 1019.1
20260903143037 74 203 0.0 0.0 0.00 0.48 0.00 93 1018.7
20260903141530 73 184 0.0 1.0 0.00 0.48 0.00 94 1018.6
20260903140028 72 184 0.0 0.0 0.00 0.48 0.00 95 1018.3
20260903134534 72 184 0.0 0.0 0.00 0.48 0.00 95 1018.5
20260903133035 72 183 0.0 0.0 0.00 0.48 0.00 95 1018.1
20260903131532 71 181 0.0 0.0 0.00 0.48 0.00 96 1018.7
20260903130008 71 177 0.0 0.0 0.00 0.48 0.00 95 1018.3
20260903124511 71 177 0.0 0.0 0.00 0.48 0.00 95 1019.1
20260903123004 71 174 0.0 0.0 0.00 0.48 0.00 95 1019.0
20260903121523 71 174 0.0 0.0 0.00 0.48 0.00 95 1019.3
20260903120023 71 174 0.0 0.0 0.00 0.48 0.00 95 1019.5
20260903114518 71 174 0.0 0.0 0.00 0.48 0.00 96 1019.6
20260903113013 71 174 0.0 0.0 0.00 0.48 0.00 95 1019.8
20260903111512 70 174 0.0 0.0 0.00 0.48 0.00 95 1020.1
20260903110008 70 181 0.0 0.0 0.00 0.48 0.00 95 1020.1
20260903104528 70 181 0.0 1.0 0.00 0.48 0.00 95 1019.8
20260903103027 70 176 0.0 0.0 0.00 0.48 0.00 95 1018.9
20260903101539 70 176 0.0 0.0 0.00 0.48 0.00 95 1018.7
20260903100027 70 176 0.0 0.0 0.00 0.48 0.00 95 1018.6
20260903094513 70 177 0.0 0.0 0.00 0.48 0.00 95 1018.6
20260903093012 70 177 0.0 2.0 0.00 0.48 0.00 95 1018.6
20260903091531 70 179 0.0 0.0 0.00 0.48 0.00 95 1018.3
20260903090028 70 179 0.0 0.0 0.00 0.48 0.00 95 1018.2
20260903084531 70 179 0.0 0.0 0.00 0.48 0.00 95 1018.2
20260903083025 70 179 0.0 0.0 0.00 0.48 0.00 95 1018.1
20260903081516 70 179 0.0 0.0 0.00 0.48 0.00 95 1018.2
20260903080029 70 179 0.0 0.0 0.00 0.48 0.00 95 1018.3
20260903074530 70 179 0.0 0.0 0.00 0.48 0.00 95 1018.3
20260903073032 70 179 0.0 0.0 0.00 0.48 0.00 95 1018.3
20260903071528 69 179 0.0 0.0 0.00 0.48 0.00 95 1018.3
20260903070027 69 179 0.0 0.0 0.00 0.48 0.00 95 1018.0
20260903064517 69 179 0.0 0.0 0.00 0.48 0.00 95 1018.0
20260903063031 69 179 0.0 0.0 0.00 0.48 0.00 95 1017.8
20260903061533 69 179 0.0 0.0 0.00 0.48 0.00 95 1017.8
20260903060030 69 179 0.0 0.0 0.00 0.48 0.00 95 1018.0
20260903054527 69 179 0.0 0.0 0.00 0.48 0.00 94 1018.0
20260903053027 69 179 0.0 0.0 0.00 0.48 0.00 94 1018.2
20260903051523 69 179 0.0 0.0 0.00 0.48 0.00 94 1018.3
20260903050024 69 179 0.0 0.0 0.00 0.48 0.00 94 1018.2
20260903044522 70 179 0.0 0.0 0.00 0.48 0.00 94 1018.1
20260903043010 70 179 0.0 0.0 0.00 0.48 0.00 94 1018.3
20260903041512 70 179 0.0 0.0 0.00 0.48 0.00 94 1018.7
20260903040037 70 179 0.0 0.0 0.00 0.48 0.00 94 1018.8
20260903034527 70 179 0.0 0.0 0.00 0.48 0.48 94 1019.3
20260903033023 70 179 0.0 0.0 0.00 0.48 0.48 94 1019.3
20260903031517 70 179 0.0 0.0 0.00 0.48 0.48 94 1018.8
20260903030016 70 179 0.0 0.0 0.00 0.48 0.48 94 1018.8
20260903024512 70 179 0.0 0.0 0.00 0.48 0.48 94 1018.7
20260903023034 70 179 0.0 0.0 0.00 0.48 0.48 94 1018.9
20260903021531 70 179 0.0 0.0 0.00 0.48 0.48 94 1018.8
20260903020028 70 179 0.0 0.0 0.00 0.48 0.48 94 1018.8
20260903014523 70 179 0.0 0.0 0.00 0.48 0.48 94 1019.2
20260903013018 70 179 0.0 0.0 0.00 0.48 0.48 94 1018.9
20260903011514 70 179 0.0 0.0 0.00 0.48 0.48 94 1018.5
20260903010041 70 179 0.0 0.0 0.00 0.48 0.48 93 1018.5
20260903004526 70 179 0.0 0.0 0.00 0.48 0.48 93 1018.4
20260903003028 71 179 0.0 0.0 0.00 0.48 0.48 93 1018.7
20260903001533 71 179 0.0 0.0 0.00 0.48 0.48 93 1018.5
20260903000023 71 179 0.0 0.0 0.00 0.48 0.48 93 1018.6
20260902234535 71 179 0.0 0.0 0.00 0.48 0.48 92 1018.7
20260902233032 71 179 0.0 0.0 0.00 0.48 0.48 92 1018.8
20260902231532 72 179 0.0 0.0 0.00 0.48 0.48 92 1018.8
20260902230030 72 179 0.0 0.0 0.00 0.48 0.48 92 1018.6
20260902224529 72 179 0.0 0.0 0.00 0.48 0.48 91 1018.7
20260902223021 73 179 0.0 0.0 0.00 0.48 0.48 90 1018.8
20260902221538 73 179 0.0 0.0 0.00 0.48 0.48 91 1018.8
20260902220007 73 179 0.0 0.0 0.00 0.48 0.48 90 1018.9
20260902214506 73 179 0.0 0.0 0.00 0.48 0.48 91 1019.2
20260902213004 72 179 0.0 0.0 0.00 0.48 0.48 92 1019.5